Weather Roundup
Issued by NWS

Home | Current Version | Previous Version | Text Only | Print | Product List | Glossary On
Versions: 1 2 3 4 5 6 7 8 9 10 11 12 13 14 15 16 17 18 19 20 21 22 23 24 25 26 27 28 29 30 31 32 33 34 35 36 37 38 39 40 41 42 43 44 45 46 47 48 49 50
000
NZUS93 KARX 262310
HRRWXR

CURRENT HOURLY OBSERVATIONS ACROSS
MUCH OF THE UPPER MISSISSIPPI VALLEY
NATIONAL WEATHER SERVICE LA CROSSE WI
500 PM CST FRI DEC 26 2014


...SOUTHEAST MINNESOTA...


CITY           SKY/WX    TMP DP  RH WIND       PRES   REMARKS
ROCHESTER      CLOUDY    32  29  88 N12       29.98R WCI  23
ROCHESTER/MAYO CLOUDY    33  31  92 N8        29.99R WCI  26
WINONA         CLOUDY    36  32  87 N3        30.01R
AUSTIN         CLOUDY    32  30  93 N10       29.99R WCI  24
ALBERT LEA     CLOUDY    32  30  93 N12       30.00R FOG     WCI  23
DODGE CENTER   CLOUDY    32  30  93 N12       29.99R WCI  23
PRESTON        CLOUDY    32  31  94 N6        29.98S FOG     WCI  26
OWATONNA       CLOUDY    30  28  93 N14       30.01R WCI  20
FARIBAULT      CLOUDY    30  28  93 N12       30.02S WCI  21
$$

...ELSEWHERE IN MINNESOTA...


CITY           SKY/WX    TMP DP  RH WIND       PRES   REMARKS
MINNEAPOLIS    CLOUDY    31  24  75 N13       30.06R WCI  21
INTNL FALLS    CLOUDY    21  16  81 NW5       30.12R WCI  15
DULUTH         CLOUDY    28  21  75 N7        30.06R WCI  21
RED WING       CLOUDY    34  28  80 N7        30.01F WCI  28
REDWOOD FALLS  CLOUDY    29  23  78 N12G18    30.07S WCI  19
MANKATO        CLOUDY    30  25  80 N17       30.02S WCI  18
WORTHINGTON    CLOUDY    27 -20  12 N14       30.05R WCI  15
FAIRMONT       CLOUDY    30  25  80 N15       30.03R WCI  19
$$

...SOUTHWEST WISCONSIN...


CITY           SKY/WX    TMP DP  RH WIND       PRES   REMARKS
LA CROSSE      CLOUDY    37  32  82 NW9       29.99R WCI  30
PRAIRIE DU CHI CLOUDY    40  32  74 CALM      29.96S
BOSCOBEL       CLOUDY    41  33  73 CALM      29.97R HAZE
LONE ROCK      MOCLDY    42  32  67 CALM      29.97R
PLATTEVILLE    MOCLDY    41  36  80 CALM      29.97R
FORT MC COY    CLOUDY    38  32  78 N7        29.98S WCI  33
CAMP DOUGLAS   CLOUDY    36  36 100 CALM      29.97R
VIROQUA        FAIR      37  35  93 CALM      29.95S
WIS DELLS      MOCLDY    39  32  77 CALM      29.96R
$$

...ELSEWHERE IN WISCONSIN...


CITY           SKY/WX    TMP DP  RH WIND       PRES   REMARKS
MILWAUKEE      MOCLDY    43  34  70 CALM      30.00R
MADISON        MOCLDY    42  34  73 S3        29.96R
GREEN BAY      CLOUDY    36  34  92 N7        30.01R WCI  30
EAU CLAIRE     CLOUDY    33  28  81 N6        30.02R WCI  28
BLACK RVR FLS  CLOUDY    37  32  81 N5        29.98S WCI  34
MEDFORD        CLOUDY    32  30  93 NE6       29.98R WCI  26
WAUSAU         CLOUDY    34  31  88 CALM      29.98R
WIS RAPIDS     CLOUDY    35  30  82 NE6       29.99R WCI  30
MARSHFIELD     CLOUDY    34  30  85 NE10      29.98R WCI  26
RICE LAKE      CLOUDY    32  28  84 N8        30.05R WCI  25
$$

...NORTHEAST IOWA...


CITY           SKY/WX    TMP DP  RH WIND       PRES   REMARKS
DECORAH        CLOUDY    36  32  87 NW6       29.96R WCI  31
MASON CITY     CLOUDY    32  30  92 N14       30.01R WCI  22
CHARLES CITY   CLOUDY    34  34 100 N6        29.99R FOG     WCI  29
OELWEIN        CLOUDY    36  34  93 NW6       29.97R WCI  31
$$

...ELSEWHERE IN IOWA...


CITY           SKY/WX    TMP DP  RH WIND       PRES   REMARKS
DES MOINES     CLOUDY    35  31  85 N6        29.99R WCI  30
IOWA CITY      MOCLDY    44  36  73 CALM      29.97R
FORT DODGE     CLOUDY    32  28  86 N7        30.00S WCI  26
$$

...NORTHERN ILLINOIS...


CITY           SKY/WX    TMP DP  RH WIND       PRES   REMARKS
CHICAGO-OHARE  MOCLDY    46  38  73 SW5       30.00R
CHICAGO-MIDWAY MOCLDY    50  40  68 S6        30.01S
MOLINE         PTCLDY    48  37  65 S7        29.96R
ROCKFORD       MOCLDY    45  37  73 S6        29.99S
PEORIA         MOCLDY    50  41  71 S8        29.99S
$$

NOTE: "FAIR" INDICATES FEW OR NO CLOUDS BELOW 12,000 FEET WITH NO
SIGNIFICANT WEATHER AND/OR OBSTRUCTIONS TO VISIBILITY. WIND
SPEEDS ARE IN MILES-PER-HOUR.



USA.gov is the U.S. government's official web portal to all federal, state and local government web resources and services.